Year,Month,Day,Hour,Minute,Value (Times are PST for temperature in C)
2021,07,02,00,00,17.50
2021,07,02,00,01,17.50
2021,07,02,00,02,17.50
2021,07,02,00,03,17.50
2021,07,02,00,04,17.50
2021,07,02,00,05,17.40
2021,07,02,00,06,17.40
2021,07,02,00,07,17.40
2021,07,02,00,08,17.40
2021,07,02,00,09,17.40
2021,07,02,00,10,17.40
2021,07,02,00,11,17.40
2021,07,02,00,12,17.40
2021,07,02,00,13,17.40
2021,07,02,00,14,17.40
2021,07,02,00,15,17.40
2021,07,02,00,16,17.40
2021,07,02,00,17,17.40
2021,07,02,00,18,17.40
2021,07,02,00,19,17.40
2021,07,02,00,20,17.40
2021,07,02,00,21,17.30
2021,07,02,00,22,17.30
2021,07,02,00,23,17.30
2021,07,02,00,24,17.30
2021,07,02,00,25,17.30
2021,07,02,00,26,17.30
2021,07,02,00,27,17.30
2021,07,02,00,28,17.30
2021,07,02,00,29,17.30
2021,07,02,00,30,17.30
2021,07,02,00,31,17.30
2021,07,02,00,32,17.30
2021,07,02,00,33,17.30
2021,07,02,00,34,17.30
2021,07,02,00,35,17.30
2021,07,02,00,36,17.30
2021,07,02,00,37,17.30
2021,07,02,00,38,17.20
2021,07,02,00,39,17.20
2021,07,02,00,40,17.20
2021,07,02,00,41,17.20
2021,07,02,00,42,17.10
2021,07,02,00,43,17.10
2021,07,02,00,44,17.10
2021,07,02,00,45,17.00
2021,07,02,00,46,17.00
2021,07,02,00,47,16.90
2021,07,02,00,48,16.90
2021,07,02,00,49,16.90
2021,07,02,00,50,16.90
2021,07,02,00,51,16.90
2021,07,02,00,52,16.90
2021,07,02,00,53,16.90
2021,07,02,00,54,16.90
2021,07,02,00,55,16.90
2021,07,02,00,56,16.80
2021,07,02,00,57,16.80
2021,07,02,00,58,16.80
2021,07,02,00,59,16.80
2021,07,02,01,00,16.80
2021,07,02,01,01,16.80
2021,07,02,01,02,16.80
2021,07,02,01,03,16.80
2021,07,02,01,04,16.80
2021,07,02,01,05,16.80
2021,07,02,01,06,16.80
2021,07,02,01,07,16.80
2021,07,02,01,08,16.80
2021,07,02,01,09,16.80
2021,07,02,01,10,16.80
2021,07,02,01,11,16.80
2021,07,02,01,12,16.80
2021,07,02,01,13,16.80
2021,07,02,01,14,16.70
2021,07,02,01,15,16.80
2021,07,02,01,16,16.70
2021,07,02,01,17,16.70
2021,07,02,01,18,16.70
2021,07,02,01,19,16.70
2021,07,02,01,20,16.70
2021,07,02,01,21,16.70
2021,07,02,01,22,16.70
2021,07,02,01,23,16.70
2021,07,02,01,24,16.60
2021,07,02,01,25,16.60
2021,07,02,01,26,16.60
2021,07,02,01,27,16.60
2021,07,02,01,28,16.60
2021,07,02,01,29,16.60
2021,07,02,01,30,16.60
2021,07,02,01,31,16.60
2021,07,02,01,32,16.60
2021,07,02,01,33,16.60
2021,07,02,01,34,16.60
2021,07,02,01,35,16.60
2021,07,02,01,36,16.60
2021,07,02,01,37,16.60
2021,07,02,01,38,16.60
2021,07,02,01,39,16.60
2021,07,02,01,40,16.60
2021,07,02,01,41,16.60
2021,07,02,01,42,16.60
2021,07,02,01,43,16.60
2021,07,02,01,44,16.70
2021,07,02,01,45,16.70
2021,07,02,01,46,16.70
2021,07,02,01,47,16.70
2021,07,02,01,48,16.70
2021,07,02,01,49,16.70
2021,07,02,01,50,16.70
2021,07,02,01,51,16.70
2021,07,02,01,52,16.70
2021,07,02,01,53,16.60
2021,07,02,01,54,16.60
2021,07,02,01,55,16.60
2021,07,02,01,56,16.70
2021,07,02,01,57,16.60
2021,07,02,01,58,16.60
2021,07,02,01,59,16.60
2021,07,02,02,00,16.60
2021,07,02,02,01,16.60
2021,07,02,02,02,16.60
2021,07,02,02,03,16.60
2021,07,02,02,04,16.60
2021,07,02,02,05,16.60
2021,07,02,02,06,16.60
2021,07,02,02,07,16.60
2021,07,02,02,08,16.60
2021,07,02,02,09,16.60
2021,07,02,02,10,16.60
2021,07,02,02,11,16.60
2021,07,02,02,12,16.60
2021,07,02,02,13,16.60
2021,07,02,02,14,16.60
2021,07,02,02,15,16.60
2021,07,02,02,16,16.50
2021,07,02,02,17,16.50
2021,07,02,02,18,16.50
2021,07,02,02,19,16.50
2021,07,02,02,20,16.50
2021,07,02,02,21,16.50
2021,07,02,02,22,16.50
2021,07,02,02,23,16.50
2021,07,02,02,24,16.50
2021,07,02,02,25,16.50
2021,07,02,02,26,16.50
2021,07,02,02,27,16.40
2021,07,02,02,28,16.40
2021,07,02,02,29,16.40
2021,07,02,02,30,16.30
2021,07,02,02,31,16.30
2021,07,02,02,32,16.30
2021,07,02,02,33,16.30
2021,07,02,02,34,16.30
2021,07,02,02,35,16.30
2021,07,02,02,36,16.30
2021,07,02,02,37,16.30
2021,07,02,02,38,16.20
2021,07,02,02,39,16.30
2021,07,02,02,40,16.20
2021,07,02,02,41,16.20
2021,07,02,02,42,16.20
2021,07,02,02,43,16.20
2021,07,02,02,44,16.20
2021,07,02,02,45,16.20
2021,07,02,02,46,16.20
2021,07,02,02,47,16.20
2021,07,02,02,48,16.20
2021,07,02,02,49,16.20
2021,07,02,02,50,16.20
2021,07,02,02,51,16.20
2021,07,02,02,52,16.30
2021,07,02,02,53,16.30
2021,07,02,02,54,16.30
2021,07,02,02,55,16.30
2021,07,02,02,56,16.30
2021,07,02,02,57,16.30
2021,07,02,02,58,16.30
2021,07,02,02,59,16.30
2021,07,02,03,00,16.30
2021,07,02,03,01,16.30
2021,07,02,03,02,16.30
2021,07,02,03,03,16.30
2021,07,02,03,04,16.30
2021,07,02,03,05,16.30
2021,07,02,03,06,16.30
2021,07,02,03,07,16.30
2021,07,02,03,08,16.30
2021,07,02,03,09,16.30
2021,07,02,03,10,16.30
2021,07,02,03,11,16.30
2021,07,02,03,12,16.30
2021,07,02,03,13,16.30
2021,07,02,03,14,16.30
2021,07,02,03,15,16.30
2021,07,02,03,16,16.30
2021,07,02,03,17,16.30
2021,07,02,03,18,16.30
2021,07,02,03,19,16.30
2021,07,02,03,20,16.30
2021,07,02,03,21,16.30
2021,07,02,03,22,16.30
2021,07,02,03,23,16.30
2021,07,02,03,24,16.30
2021,07,02,03,25,16.30
2021,07,02,03,26,16.30
2021,07,02,03,27,16.30
2021,07,02,03,28,16.30
2021,07,02,03,29,16.30
2021,07,02,03,30,16.30
2021,07,02,03,31,16.30
2021,07,02,03,32,16.30
2021,07,02,03,33,16.30
2021,07,02,03,34,16.40
2021,07,02,03,35,16.40
2021,07,02,03,36,16.40
2021,07,02,03,37,16.40
2021,07,02,03,38,16.40
2021,07,02,03,39,16.40
2021,07,02,03,40,16.40
2021,07,02,03,41,16.40
2021,07,02,03,42,16.40
2021,07,02,03,43,16.40
2021,07,02,03,44,16.40
2021,07,02,03,45,16.40
2021,07,02,03,46,16.40
2021,07,02,03,47,16.40
2021,07,02,03,48,16.40
2021,07,02,03,49,16.40
2021,07,02,03,50,16.50
2021,07,02,03,51,16.50
2021,07,02,03,52,16.50
2021,07,02,03,53,16.50
2021,07,02,03,54,16.50
2021,07,02,03,55,16.50
2021,07,02,03,56,16.50
2021,07,02,03,57,16.50
2021,07,02,03,58,16.50
2021,07,02,03,59,16.50
2021,07,02,04,00,16.50
2021,07,02,04,01,16.50
2021,07,02,04,02,16.50
2021,07,02,04,03,16.40
2021,07,02,04,04,16.40
2021,07,02,04,05,16.40
2021,07,02,04,06,16.40
2021,07,02,04,07,16.40
2021,07,02,04,08,16.40
2021,07,02,04,09,16.40
2021,07,02,04,10,16.40
2021,07,02,04,11,16.40
2021,07,02,04,12,16.40
2021,07,02,04,13,16.40
2021,07,02,04,14,16.40
2021,07,02,04,15,16.40
2021,07,02,04,16,16.40
2021,07,02,04,17,16.40
2021,07,02,04,18,16.40
2021,07,02,04,19,16.40
2021,07,02,04,20,16.40
2021,07,02,04,21,16.40
2021,07,02,04,22,16.40
2021,07,02,04,23,16.40
2021,07,02,04,24,16.40
2021,07,02,04,25,16.40
2021,07,02,04,26,16.40
2021,07,02,04,27,16.40
2021,07,02,04,28,16.40
2021,07,02,04,29,16.50
2021,07,02,04,30,16.50
2021,07,02,04,31,16.50
2021,07,02,04,32,16.60
2021,07,02,04,33,16.60
2021,07,02,04,34,16.60
2021,07,02,04,35,16.60
2021,07,02,04,36,16.70
2021,07,02,04,37,16.70
2021,07,02,04,38,16.70
2021,07,02,04,39,16.70
2021,07,02,04,40,16.80
2021,07,02,04,41,16.80
2021,07,02,04,42,16.80
2021,07,02,04,43,16.80
2021,07,02,04,44,16.80
2021,07,02,04,45,16.80
2021,07,02,04,46,16.80
2021,07,02,04,47,16.80
2021,07,02,04,48,16.80
2021,07,02,04,49,16.80
2021,07,02,04,50,16.80
2021,07,02,04,51,16.80
2021,07,02,04,52,16.80
2021,07,02,04,53,16.80
2021,07,02,04,54,16.80
2021,07,02,04,55,16.80
2021,07,02,04,56,16.80
2021,07,02,04,57,16.80
2021,07,02,04,58,16.80
2021,07,02,04,59,16.80
2021,07,02,05,00,16.80
2021,07,02,05,01,16.80
2021,07,02,05,02,16.80
2021,07,02,05,03,16.80
2021,07,02,05,04,16.80
2021,07,02,05,05,16.70
2021,07,02,05,06,16.80
2021,07,02,05,07,16.70
2021,07,02,05,08,16.70
2021,07,02,05,09,16.70
2021,07,02,05,10,16.70
2021,07,02,05,11,16.70
2021,07,02,05,12,16.70
2021,07,02,05,13,16.70
2021,07,02,05,14,16.70
2021,07,02,05,15,16.70
2021,07,02,05,16,16.70
2021,07,02,05,17,16.70
2021,07,02,05,18,16.70
2021,07,02,05,19,16.70
2021,07,02,05,20,16.70
2021,07,02,05,21,16.70
2021,07,02,05,22,16.70
2021,07,02,05,23,16.70
2021,07,02,05,24,16.70
2021,07,02,05,25,16.70
2021,07,02,05,26,16.70
2021,07,02,05,27,16.70
2021,07,02,05,28,16.70
2021,07,02,05,29,16.70
2021,07,02,05,30,16.70
2021,07,02,05,31,16.70
2021,07,02,05,32,16.70
2021,07,02,05,33,16.70
2021,07,02,05,34,16.70
2021,07,02,05,35,16.70
2021,07,02,05,36,16.70
2021,07,02,05,37,16.70
2021,07,02,05,38,16.70
2021,07,02,05,39,16.70
2021,07,02,05,40,16.70
2021,07,02,05,41,16.70
2021,07,02,05,42,16.80
2021,07,02,05,43,16.80
2021,07,02,05,44,16.80
2021,07,02,05,45,16.80
2021,07,02,05,46,16.80
2021,07,02,05,47,16.80
2021,07,02,05,48,16.80
2021,07,02,05,49,16.80
2021,07,02,05,50,16.80
2021,07,02,05,51,16.80
2021,07,02,05,52,16.80
2021,07,02,05,53,16.80
2021,07,02,05,54,16.80
2021,07,02,05,55,16.80
2021,07,02,05,56,16.80
2021,07,02,05,57,16.80
2021,07,02,05,58,16.80
2021,07,02,05,59,16.80
2021,07,02,06,00,16.80
2021,07,02,06,01,16.80
2021,07,02,06,02,16.80
2021,07,02,06,03,16.90
2021,07,02,06,04,16.90
2021,07,02,06,05,16.90
2021,07,02,06,06,16.90
2021,07,02,06,07,16.90
2021,07,02,06,08,16.90
2021,07,02,06,09,16.90
2021,07,02,06,10,17.00
2021,07,02,06,11,17.00
2021,07,02,06,12,17.00
2021,07,02,06,13,17.00
2021,07,02,06,14,17.00
2021,07,02,06,15,17.00
2021,07,02,06,16,17.10
2021,07,02,06,17,17.10
2021,07,02,06,18,17.10
2021,07,02,06,19,17.10
2021,07,02,06,20,17.10
2021,07,02,06,21,17.10
2021,07,02,06,22,17.10
2021,07,02,06,23,17.10
2021,07,02,06,24,17.10
2021,07,02,06,25,17.20
2021,07,02,06,26,17.20
2021,07,02,06,27,17.20
2021,07,02,06,28,17.20
2021,07,02,06,29,17.20
2021,07,02,06,30,17.20
2021,07,02,06,31,17.30
2021,07,02,06,32,17.30
2021,07,02,06,33,17.30
2021,07,02,06,34,17.40
2021,07,02,06,35,17.40
2021,07,02,06,36,17.40
2021,07,02,06,37,17.40
2021,07,02,06,38,17.50
2021,07,02,06,39,17.60
2021,07,02,06,40,17.60
2021,07,02,06,41,17.60
2021,07,02,06,42,17.70
2021,07,02,06,43,17.70
2021,07,02,06,44,17.80
2021,07,02,06,45,17.80
2021,07,02,06,46,17.80
2021,07,02,06,47,17.80
2021,07,02,06,48,17.90
2021,07,02,06,49,18.00
2021,07,02,06,50,18.00
2021,07,02,06,51,18.10
2021,07,02,06,52,18.20
2021,07,02,06,53,18.20
2021,07,02,06,54,18.30
2021,07,02,06,55,18.40
2021,07,02,06,56,18.50
2021,07,02,06,57,18.50
2021,07,02,06,58,18.60
2021,07,02,06,59,18.60
2021,07,02,07,00,18.60
2021,07,02,07,01,18.60
2021,07,02,07,02,18.60
2021,07,02,07,03,18.50
2021,07,02,07,04,18.50
2021,07,02,07,05,18.40
2021,07,02,07,06,18.40
2021,07,02,07,07,18.40
2021,07,02,07,08,18.40
2021,07,02,07,09,18.40
2021,07,02,07,10,18.40
2021,07,02,07,11,18.40
2021,07,02,07,12,18.40
2021,07,02,07,13,18.40
2021,07,02,07,14,18.40
2021,07,02,07,15,18.50
2021,07,02,07,16,18.50
2021,07,02,07,17,18.60
2021,07,02,07,18,18.60
2021,07,02,07,19,18.70
2021,07,02,07,20,18.70
2021,07,02,07,21,18.80
2021,07,02,07,22,18.80
2021,07,02,07,23,18.90
2021,07,02,07,24,19.00
2021,07,02,07,25,19.10
2021,07,02,07,26,19.10
2021,07,02,07,27,19.10
2021,07,02,07,28,19.10
2021,07,02,07,29,19.10
2021,07,02,07,30,19.10
2021,07,02,07,31,19.10
2021,07,02,07,32,19.10
2021,07,02,07,33,19.10
2021,07,02,07,34,19.10
2021,07,02,07,35,19.00
2021,07,02,07,36,19.00
2021,07,02,07,37,19.00
2021,07,02,07,38,19.00
2021,07,02,07,39,19.00
2021,07,02,07,40,18.90
2021,07,02,07,41,18.90
2021,07,02,07,42,18.90
2021,07,02,07,43,18.90
2021,07,02,07,44,18.90
2021,07,02,07,45,18.90
2021,07,02,07,46,18.90
2021,07,02,07,47,18.90
2021,07,02,07,48,19.00
2021,07,02,07,49,19.00
2021,07,02,07,50,19.00
2021,07,02,07,51,19.10
2021,07,02,07,52,19.10
2021,07,02,07,53,19.10
2021,07,02,07,54,19.10
2021,07,02,07,55,19.10
2021,07,02,07,56,19.00
2021,07,02,07,57,19.00
2021,07,02,07,58,19.00
2021,07,02,07,59,19.00
2021,07,02,08,00,19.10
2021,07,02,08,01,19.10
2021,07,02,08,02,19.10
2021,07,02,08,03,19.20
2021,07,02,08,04,19.20
2021,07,02,08,05,19.20
2021,07,02,08,06,19.30
2021,07,02,08,07,19.30
2021,07,02,08,08,19.40
2021,07,02,08,09,19.40
2021,07,02,08,10,19.40
2021,07,02,08,11,19.40
2021,07,02,08,12,19.40
2021,07,02,08,13,19.40
2021,07,02,08,14,19.40
2021,07,02,08,15,19.40
2021,07,02,08,16,19.40
2021,07,02,08,17,19.50
2021,07,02,08,18,19.50
2021,07,02,08,19,19.50
2021,07,02,08,20,19.50
2021,07,02,08,21,19.60
2021,07,02,08,22,19.60
2021,07,02,08,23,19.60
2021,07,02,08,24,19.70
2021,07,02,08,25,19.70
2021,07,02,08,26,19.70
2021,07,02,08,27,19.80
2021,07,02,08,28,19.80
2021,07,02,08,29,19.80
2021,07,02,08,30,19.80
2021,07,02,08,31,19.80
2021,07,02,08,32,19.80
2021,07,02,08,33,19.90
2021,07,02,08,34,19.90
2021,07,02,08,35,19.90
2021,07,02,08,36,20.00
2021,07,02,08,37,20.00
2021,07,02,08,38,20.10
2021,07,02,08,39,20.10
2021,07,02,08,40,20.00
2021,07,02,08,41,20.00
2021,07,02,08,42,20.00
2021,07,02,08,43,20.10
2021,07,02,08,44,20.10
2021,07,02,08,45,20.10
2021,07,02,08,46,20.00
2021,07,02,08,47,20.00
2021,07,02,08,48,20.00
2021,07,02,08,49,20.00
2021,07,02,08,50,20.10
2021,07,02,08,51,20.10
2021,07,02,08,52,20.10
2021,07,02,08,53,20.10
2021,07,02,08,54,20.20
2021,07,02,08,55,20.10
2021,07,02,08,56,20.10
2021,07,02,08,57,20.10
2021,07,02,08,58,20.10
2021,07,02,08,59,20.10
2021,07,02,09,00,20.10
2021,07,02,09,01,20.10
2021,07,02,09,02,20.10
2021,07,02,09,03,20.10
2021,07,02,09,04,20.10
2021,07,02,09,05,20.10
2021,07,02,09,06,20.10
2021,07,02,09,07,20.20
2021,07,02,09,08,20.20
2021,07,02,09,09,20.20
2021,07,02,09,10,20.20
2021,07,02,09,11,20.30
2021,07,02,09,12,20.40
2021,07,02,09,13,20.50
2021,07,02,09,14,20.60
2021,07,02,09,15,20.70
2021,07,02,09,16,20.70
2021,07,02,09,17,20.80
2021,07,02,09,18,20.80
2021,07,02,09,19,20.90
2021,07,02,09,20,20.90
2021,07,02,09,21,21.00
2021,07,02,09,22,21.10
2021,07,02,09,23,21.10
2021,07,02,09,24,21.20
2021,07,02,09,25,21.20
2021,07,02,09,26,21.30
2021,07,02,09,27,21.40
2021,07,02,09,28,21.40
2021,07,02,09,29,21.50
2021,07,02,09,30,21.50
2021,07,02,09,31,21.40
2021,07,02,09,32,21.40
2021,07,02,09,33,21.40
2021,07,02,09,34,21.40
2021,07,02,09,35,21.40
2021,07,02,09,36,21.40
2021,07,02,09,37,21.50
2021,07,02,09,38,21.50
2021,07,02,09,39,21.60
2021,07,02,09,40,21.60
2021,07,02,09,41,21.50
2021,07,02,09,42,21.50
2021,07,02,09,43,21.50
2021,07,02,09,44,21.50
2021,07,02,09,45,21.50
2021,07,02,09,46,21.40
2021,07,02,09,47,21.40
2021,07,02,09,48,21.40
2021,07,02,09,49,21.40
2021,07,02,09,50,21.30
2021,07,02,09,51,21.30
2021,07,02,09,52,21.40
2021,07,02,09,53,21.50
2021,07,02,09,54,21.50
2021,07,02,09,55,21.60
2021,07,02,09,56,21.70
2021,07,02,09,57,21.70
2021,07,02,09,58,21.80
2021,07,02,09,59,21.80
2021,07,02,10,00,21.80
2021,07,02,10,01,21.80
2021,07,02,10,02,21.80
2021,07,02,10,03,21.90
2021,07,02,10,04,21.90
2021,07,02,10,05,22.00
2021,07,02,10,06,22.10
2021,07,02,10,07,22.20
2021,07,02,10,08,22.20
2021,07,02,10,09,22.20
2021,07,02,10,10,22.20
2021,07,02,10,11,22.20
2021,07,02,10,12,22.20
2021,07,02,10,13,22.20
2021,07,02,10,14,22.20
2021,07,02,10,15,22.20
2021,07,02,10,16,22.20
2021,07,02,10,17,22.10
2021,07,02,10,18,22.10
2021,07,02,10,19,22.10
2021,07,02,10,20,22.10
2021,07,02,10,21,22.20
2021,07,02,10,22,22.30
2021,07,02,10,23,22.30
2021,07,02,10,24,22.30
2021,07,02,10,25,22.30
2021,07,02,10,26,22.20
2021,07,02,10,27,22.20
2021,07,02,10,28,22.20
2021,07,02,10,29,22.20
2021,07,02,10,30,22.20
2021,07,02,10,31,22.10
2021,07,02,10,32,22.10
2021,07,02,10,33,22.10
2021,07,02,10,34,22.10
2021,07,02,10,35,22.10
2021,07,02,10,36,22.20
2021,07,02,10,37,22.30
2021,07,02,10,38,22.30
2021,07,02,10,39,22.40
2021,07,02,10,40,22.40
2021,07,02,10,41,22.50
2021,07,02,10,42,22.50
2021,07,02,10,43,22.50
2021,07,02,10,44,22.50
2021,07,02,10,45,22.50
2021,07,02,10,46,22.60
2021,07,02,10,47,22.60
2021,07,02,10,48,22.70
2021,07,02,10,49,22.70
2021,07,02,10,50,22.80
2021,07,02,10,51,22.90
2021,07,02,10,52,22.90
2021,07,02,10,53,23.00
2021,07,02,10,54,23.10
2021,07,02,10,55,23.10
2021,07,02,10,56,23.10
2021,07,02,10,57,23.10
2021,07,02,10,58,23.10
2021,07,02,10,59,23.20
2021,07,02,11,00,23.20
2021,07,02,11,01,23.20
2021,07,02,11,02,23.20
2021,07,02,11,03,23.20
2021,07,02,11,04,23.20
2021,07,02,11,05,23.20
2021,07,02,11,06,23.20
2021,07,02,11,07,23.20
2021,07,02,11,08,23.20
2021,07,02,11,09,23.30
2021,07,02,11,10,23.30
2021,07,02,11,11,23.40
2021,07,02,11,12,23.40
2021,07,02,11,13,23.50
2021,07,02,11,14,23.50
2021,07,02,11,15,23.50
2021,07,02,11,16,23.50
2021,07,02,11,17,23.60
2021,07,02,11,18,23.60
2021,07,02,11,19,23.60
2021,07,02,11,20,23.60
2021,07,02,11,21,23.60
2021,07,02,11,22,23.60
2021,07,02,11,23,23.60
2021,07,02,11,24,23.60
2021,07,02,11,25,23.50
2021,07,02,11,26,23.50
2021,07,02,11,27,23.50
2021,07,02,11,28,23.40
2021,07,02,11,29,23.50
2021,07,02,11,30,23.50
2021,07,02,11,31,23.60
2021,07,02,11,32,23.60
2021,07,02,11,33,23.60
2021,07,02,11,34,23.80
2021,07,02,11,35,23.90
2021,07,02,11,36,24.00
2021,07,02,11,37,24.10
2021,07,02,11,38,24.20
2021,07,02,11,39,24.30
2021,07,02,11,40,24.30
2021,07,02,11,41,24.40
2021,07,02,11,42,24.50
2021,07,02,11,43,24.60
2021,07,02,11,44,24.60
2021,07,02,11,45,24.70
2021,07,02,11,46,24.80
2021,07,02,11,47,24.80
2021,07,02,11,48,25.00
2021,07,02,11,49,25.10
2021,07,02,11,50,25.20
2021,07,02,11,51,25.20
2021,07,02,11,52,25.20
2021,07,02,11,53,25.10
2021,07,02,11,54,25.00
2021,07,02,11,55,25.00
2021,07,02,11,56,24.90
2021,07,02,11,57,24.90
2021,07,02,11,58,24.80
2021,07,02,11,59,24.80
2021,07,02,12,00,24.80
2021,07,02,12,01,24.90
2021,07,02,12,02,25.00
2021,07,02,12,03,25.10
2021,07,02,12,04,25.10
2021,07,02,12,05,25.00
2021,07,02,12,06,24.90
2021,07,02,12,07,24.90
2021,07,02,12,08,24.90
2021,07,02,12,09,24.90
2021,07,02,12,10,24.90
2021,07,02,12,11,24.90
2021,07,02,12,12,25.00
2021,07,02,12,13,25.00
2021,07,02,12,14,25.10
2021,07,02,12,15,25.10
2021,07,02,12,16,25.20
2021,07,02,12,17,25.20
2021,07,02,12,18,25.20
2021,07,02,12,19,25.30
2021,07,02,12,20,25.40
2021,07,02,12,21,25.50
2021,07,02,12,22,25.50
2021,07,02,12,23,25.60
2021,07,02,12,24,25.60
2021,07,02,12,25,25.70
2021,07,02,12,26,25.70
2021,07,02,12,27,25.80
2021,07,02,12,28,25.90
2021,07,02,12,29,26.00
2021,07,02,12,30,26.00
2021,07,02,12,31,26.10
2021,07,02,12,32,26.10
2021,07,02,12,33,26.00
2021,07,02,12,34,25.90
2021,07,02,12,35,25.80
2021,07,02,12,36,25.70
2021,07,02,12,37,25.70
2021,07,02,12,38,25.70
2021,07,02,12,39,25.70
2021,07,02,12,40,25.70
2021,07,02,12,41,25.70
2021,07,02,12,42,25.70
2021,07,02,12,43,25.70
2021,07,02,12,44,25.70
2021,07,02,12,45,25.70
2021,07,02,12,46,25.70
2021,07,02,12,47,25.80
2021,07,02,12,48,25.90
2021,07,02,12,49,26.00
2021,07,02,12,50,26.20
2021,07,02,12,51,26.30
2021,07,02,12,52,26.40
2021,07,02,12,53,26.50
2021,07,02,12,54,26.50
2021,07,02,12,55,26.50
2021,07,02,12,56,26.40
2021,07,02,12,57,26.40
2021,07,02,12,58,26.40
2021,07,02,12,59,26.30
2021,07,02,13,00,26.20
2021,07,02,13,01,26.10
2021,07,02,13,02,26.10
2021,07,02,13,03,26.10
2021,07,02,13,04,26.10
2021,07,02,13,05,26.20
2021,07,02,13,06,26.40
2021,07,02,13,07,26.40
2021,07,02,13,08,26.40
2021,07,02,13,09,26.40
2021,07,02,13,10,26.40
2021,07,02,13,11,26.40
2021,07,02,13,12,26.40
2021,07,02,13,13,26.30
2021,07,02,13,14,26.30
2021,07,02,13,15,26.30
2021,07,02,13,16,26.30
2021,07,02,13,17,26.30
2021,07,02,13,18,26.40
2021,07,02,13,19,26.40
2021,07,02,13,20,26.40
2021,07,02,13,21,26.50
2021,07,02,13,22,26.60
2021,07,02,13,23,26.60
2021,07,02,13,24,26.60
2021,07,02,13,25,26.60
2021,07,02,13,26,26.60
2021,07,02,13,27,26.50
2021,07,02,13,28,26.50
2021,07,02,13,29,26.60
2021,07,02,13,30,26.60
2021,07,02,13,31,26.80
2021,07,02,13,32,26.80
2021,07,02,13,33,26.90
2021,07,02,13,34,26.80
2021,07,02,13,35,26.80
2021,07,02,13,36,26.90
2021,07,02,13,37,26.90
2021,07,02,13,38,27.00
2021,07,02,13,39,27.00
2021,07,02,13,40,27.10
2021,07,02,13,41,27.20
2021,07,02,13,42,27.20
2021,07,02,13,43,27.10
2021,07,02,13,44,27.00
2021,07,02,13,45,26.90
2021,07,02,13,46,26.80
2021,07,02,13,47,26.70
2021,07,02,13,48,26.60
2021,07,02,13,49,26.50
2021,07,02,13,50,26.30
2021,07,02,13,51,26.30
2021,07,02,13,52,26.30
2021,07,02,13,53,26.30
2021,07,02,13,54,26.40
2021,07,02,13,55,26.40
2021,07,02,13,56,26.40
2021,07,02,13,57,26.50
2021,07,02,13,58,26.60
2021,07,02,13,59,26.60
2021,07,02,14,00,26.60
2021,07,02,14,01,26.60
2021,07,02,14,02,26.70
2021,07,02,14,03,26.80
2021,07,02,14,04,26.80
2021,07,02,14,05,26.70
2021,07,02,14,06,26.70
2021,07,02,14,07,26.60
2021,07,02,14,08,26.60
2021,07,02,14,09,26.60
2021,07,02,14,10,26.60
2021,07,02,14,11,26.60
2021,07,02,14,12,26.50
2021,07,02,14,13,26.50
2021,07,02,14,14,26.60
2021,07,02,14,15,26.70
2021,07,02,14,16,26.80
2021,07,02,14,17,26.80
2021,07,02,14,18,26.90
2021,07,02,14,19,26.90
2021,07,02,14,20,26.90
2021,07,02,14,21,26.90
2021,07,02,14,22,26.90
2021,07,02,14,23,26.90
2021,07,02,14,24,26.90
2021,07,02,14,25,26.90
2021,07,02,14,26,27.00
2021,07,02,14,27,27.00
2021,07,02,14,28,27.00
2021,07,02,14,29,27.10
2021,07,02,14,30,27.10
2021,07,02,14,31,27.20
2021,07,02,14,32,27.20
2021,07,02,14,33,27.10
2021,07,02,14,34,27.10
2021,07,02,14,35,27.00
2021,07,02,14,36,27.00
2021,07,02,14,37,26.90
2021,07,02,14,38,26.90
2021,07,02,14,39,26.90
2021,07,02,14,40,26.90
2021,07,02,14,41,26.90
2021,07,02,14,42,26.80
2021,07,02,14,43,26.80
2021,07,02,14,44,26.80
2021,07,02,14,45,26.70
2021,07,02,14,46,26.60
2021,07,02,14,47,26.60
2021,07,02,14,48,26.70
2021,07,02,14,49,26.70
2021,07,02,14,50,26.80
2021,07,02,14,51,26.90
2021,07,02,14,52,26.90
2021,07,02,14,53,27.00
2021,07,02,14,54,27.00
2021,07,02,14,55,27.10
2021,07,02,14,56,27.20
2021,07,02,14,57,27.10
2021,07,02,14,58,27.00
2021,07,02,14,59,26.90
2021,07,02,15,00,27.00
2021,07,02,15,01,27.00
2021,07,02,15,02,27.00
2021,07,02,15,03,27.10
2021,07,02,15,04,27.20
2021,07,02,15,05,27.30
2021,07,02,15,06,27.30
2021,07,02,15,07,27.40
2021,07,02,15,08,27.40
2021,07,02,15,09,27.40
2021,07,02,15,10,27.50
2021,07,02,15,11,27.50
2021,07,02,15,12,27.40
2021,07,02,15,13,27.50
2021,07,02,15,14,27.60
2021,07,02,15,15,27.70
2021,07,02,15,16,27.80
2021,07,02,15,17,27.80
2021,07,02,15,18,27.90
2021,07,02,15,19,27.90
2021,07,02,15,20,27.90
2021,07,02,15,21,27.80
2021,07,02,15,22,27.80
2021,07,02,15,23,27.80
2021,07,02,15,24,27.80
2021,07,02,15,25,27.70
2021,07,02,15,26,27.70
2021,07,02,15,27,27.70
2021,07,02,15,28,27.70
2021,07,02,15,29,27.80
2021,07,02,15,30,27.80
2021,07,02,15,31,27.70
2021,07,02,15,32,27.60
2021,07,02,15,33,27.40
2021,07,02,15,34,27.30
2021,07,02,15,35,27.20
2021,07,02,15,36,27.30
2021,07,02,15,37,27.40
2021,07,02,15,38,27.50
2021,07,02,15,39,27.60
2021,07,02,15,40,27.60
2021,07,02,15,41,27.60
2021,07,02,15,42,27.70
2021,07,02,15,43,27.70
2021,07,02,15,44,27.70
2021,07,02,15,45,27.60
2021,07,02,15,46,27.60
2021,07,02,15,47,27.60
2021,07,02,15,48,27.60
2021,07,02,15,49,27.70
2021,07,02,15,50,27.80
2021,07,02,15,51,27.80
2021,07,02,15,52,27.70
2021,07,02,15,53,27.80
2021,07,02,15,54,27.80
2021,07,02,15,55,27.90
2021,07,02,15,56,27.90
2021,07,02,15,57,27.90
2021,07,02,15,58,27.80
2021,07,02,15,59,27.70
2021,07,02,16,00,27.70
2021,07,02,16,01,27.50
2021,07,02,16,02,27.40
2021,07,02,16,03,27.50
2021,07,02,16,04,27.50
2021,07,02,16,05,27.50
2021,07,02,16,06,27.50
2021,07,02,16,07,27.50
2021,07,02,16,08,27.50
2021,07,02,16,09,27.60
2021,07,02,16,10,27.60
2021,07,02,16,11,27.60
2021,07,02,16,12,27.70
2021,07,02,16,13,27.70
2021,07,02,16,14,27.60
2021,07,02,16,15,27.60
2021,07,02,16,16,27.50
2021,07,02,16,17,27.50
2021,07,02,16,18,27.40
2021,07,02,16,19,27.50
2021,07,02,16,20,27.50
2021,07,02,16,21,27.50
2021,07,02,16,22,27.40
2021,07,02,16,23,27.40
2021,07,02,16,24,27.40
2021,07,02,16,25,27.50
2021,07,02,16,26,27.50
2021,07,02,16,27,27.60
2021,07,02,16,28,27.60
2021,07,02,16,29,27.60
2021,07,02,16,30,27.50
2021,07,02,16,31,27.50
2021,07,02,16,32,27.40
2021,07,02,16,33,27.40
2021,07,02,16,34,27.30
2021,07,02,16,35,27.30
2021,07,02,16,36,27.30
2021,07,02,16,37,27.30
2021,07,02,16,38,27.30
2021,07,02,16,39,27.30
2021,07,02,16,40,27.30
2021,07,02,16,41,27.30
2021,07,02,16,42,27.30
2021,07,02,16,43,27.30
2021,07,02,16,44,27.30
2021,07,02,16,45,27.30
2021,07,02,16,46,27.30
2021,07,02,16,47,27.30
2021,07,02,16,48,27.40
2021,07,02,16,49,27.50
2021,07,02,16,50,27.60
2021,07,02,16,51,27.70
2021,07,02,16,52,27.70
2021,07,02,16,53,27.70
2021,07,02,16,54,27.70
2021,07,02,16,55,27.70
2021,07,02,16,56,27.60
2021,07,02,16,57,27.60
2021,07,02,16,58,27.60
2021,07,02,16,59,27.70
2021,07,02,17,00,27.80
2021,07,02,17,01,27.80
2021,07,02,17,02,27.90
2021,07,02,17,03,27.80
2021,07,02,17,04,27.80
2021,07,02,17,05,27.70
2021,07,02,17,06,27.60
2021,07,02,17,07,27.50
2021,07,02,17,08,27.50
2021,07,02,17,09,27.40
2021,07,02,17,10,27.40
2021,07,02,17,11,27.40
2021,07,02,17,12,27.40
2021,07,02,17,13,27.40
2021,07,02,17,14,27.40
2021,07,02,17,15,27.50
2021,07,02,17,16,27.60
2021,07,02,17,17,27.60
2021,07,02,17,18,27.60
2021,07,02,17,19,27.50